Location: Northcutt
(34.7304°N, 84.4305°W)
Time: 11:21:31
(UTC+00:00)

A-11 Canister half - Pass Details

Date: 03 October 2022
Orbit: 1524 x 1685 km, 47.3° (Epoch: 30 November)

Event Time Altitude Azimuth Distance (km) Brightness Sun altitude
Rises 03:47:46 0° 304° (WNW) 4,743 12.2 -51.6°
Reaches altitude 10° 03:50:50 10° 301° (WNW) 3,777 11.5 -52.0°
Enters shadow 03:54:39 28° 293° (WNW) 2,659 10.4 -52.5°
Maximum altitude 04:00:16 63° 223° (SW) 1,770 - -53.2°
Drops below altitude 10° 04:10:00 10° 145° (SE) 3,890 - -54.4°
Sets 04:13:13 0° 142° (SE) 4,892 - -54.8°
